Time,TemperatureF,DewpointF,PressureIn,WindDirection,WindDirectionDegrees,WindSpeedMPH,WindSpeedGustMPH,Humidity,HourlyPrecipIn,Conditions,Clouds,dailyrainin,SoftwareType,DateUTC
2013-04-13 00:00:00,40.7,39.1,29.77,ENE,75,0.0,5.0,94,0.00,,,0.39,VWS V14.01,2013-04-13 04:00:00,
2013-04-13 00:05:00,40.8,39.2,29.77,NNE,21,0.0,5.0,94,0.00,,,0.00,VWS V14.01,2013-04-13 04:05:00,
2013-04-13 00:10:00,40.8,39.2,29.77,NNE,21,0.0,5.0,94,0.00,,,0.00,VWS V14.01,2013-04-13 04:10:00,
2013-04-13 00:15:00,40.8,39.2,29.77,NNE,21,0.0,5.0,94,0.00,,,0.00,VWS V14.01,2013-04-13 04:15:00,
2013-04-13 00:20:00,40.8,39.2,29.77,East,92,5.0,5.0,94,0.00,,,0.00,VWS V14.01,2013-04-13 04:20:00,
2013-04-13 00:25:00,40.8,39.2,29.77,East,92,0.0,5.0,94,0.00,,,0.00,VWS V14.01,2013-04-13 04:25:00,
2013-04-13 00:30:00,40.8,39.2,29.78,NE,44,3.0,5.0,94,0.00,,,0.00,VWS V14.01,2013-04-13 04:30:00,
2013-04-13 00:35:00,40.7,39.1,29.78,NE,44,0.0,5.0,94,0.00,,,0.00,VWS V14.01,2013-04-13 04:35:00,
2013-04-13 00:40:00,40.8,39.2,29.78,NE,44,0.0,5.0,94,0.00,,,0.00,VWS V14.01,2013-04-13 04:40:00,
2013-04-13 00:45:00,40.8,39.2,29.78,ENE,57,0.0,5.0,94,0.00,,,0.00,VWS V14.01,2013-04-13 04:45:00,
2013-04-13 00:50:00,40.8,39.2,29.78,ENE,57,0.0,6.0,94,0.00,,,0.00,VWS V14.01,2013-04-13 04:50:00,
2013-04-13 00:55:00,40.7,38.8,29.78,NE,55,2.0,6.0,93,0.00,,,0.00,VWS V14.01,2013-04-13 04:55:00,
2013-04-13 01:00:00,40.8,38.9,29.79,NNW,339,3.0,6.0,93,0.00,,,0.00,VWS V14.01,2013-04-13 05:00:00,
2013-04-13 01:05:00,40.8,39.2,29.79,ENE,57,0.0,7.0,94,0.00,,,0.00,VWS V14.01,2013-04-13 05:05:00,
2013-04-13 01:10:00,40.8,38.9,29.79,NNE,12,2.0,7.0,93,0.00,,,0.00,VWS V14.01,2013-04-13 05:10:00,
2013-04-13 01:15:00,40.8,38.9,29.80,NE,53,0.0,9.0,93,0.00,,,0.00,VWS V14.01,2013-04-13 05:15:00,
2013-04-13 01:20:00,40.8,38.9,29.80,ENE,60,0.0,7.0,93,0.00,,,0.00,VWS V14.01,2013-04-13 05:20:00,
2013-04-13 01:25:00,40.8,38.9,29.80,ENE,60,0.0,7.0,93,0.00,,,0.00,VWS V14.01,2013-04-13 05:25:00,
2013-04-13 01:30:00,41.0,39.1,29.81,SW,223,1.0,7.0,93,0.00,,,0.00,VWS V14.01,2013-04-13 05:30:00,
2013-04-13 01:35:00,41.0,39.1,29.81,NNE,27,0.0,0.0,93,0.00,,,0.00,VWS V14.01,2013-04-13 05:35:00,
2013-04-13 01:40:00,41.0,39.1,29.81,NNE,32,0.0,2.0,93,0.00,,,0.00,VWS V14.01,2013-04-13 05:40:00,
2013-04-13 01:45:00,41.0,39.1,29.81,NNE,32,0.0,2.0,93,0.00,,,0.00,VWS V14.01,2013-04-13 05:45:00,
2013-04-13 01:50:00,41.0,39.1,29.81,NNE,32,0.0,3.0,93,0.00,,,0.00,VWS V14.01,2013-04-13 05:50:00,
2013-04-13 01:55:00,41.0,39.1,29.81,NE,48,0.0,4.0,93,0.00,,,0.00,VWS V14.01,2013-04-13 05:55:00,
2013-04-13 02:00:00,41.0,39.1,29.82,NE,48,0.0,4.0,93,0.01,,,0.01,VWS V14.01,2013-04-13 06:00:00,
2013-04-13 02:05:00,41.0,39.1,29.82,ENE,75,0.0,7.0,93,0.01,,,0.01,VWS V14.01,2013-04-13 06:05:00,
2013-04-13 02:10:00,41.0,39.1,29.82,NNE,13,0.0,7.0,93,0.01,,,0.01,VWS V14.01,2013-04-13 06:10:00,
2013-04-13 02:15:00,41.0,39.1,29.82,NNE,13,0.0,7.0,93,0.01,,,0.01,VWS V14.01,2013-04-13 06:15:00,
2013-04-13 02:20:00,41.0,39.1,29.82,ENE,65,4.0,5.0,93,0.01,,,0.01,VWS V14.01,2013-04-13 06:20:00,
2013-04-13 02:25:00,41.0,39.1,29.82,ENE,65,0.0,5.0,93,0.01,,,0.01,VWS V14.01,2013-04-13 06:25:00,
2013-04-13 02:30:00,41.0,39.1,29.82,NE,53,0.0,5.0,93,0.01,,,0.01,VWS V14.01,2013-04-13 06:30:00,
2013-04-13 02:35:00,40.8,38.9,29.82,NE,53,0.0,5.0,93,0.01,,,0.01,VWS V14.01,2013-04-13 06:35:00,
2013-04-13 02:40:00,40.8,38.9,29.82,NE,53,0.0,5.0,93,0.01,,,0.01,VWS V14.01,2013-04-13 06:40:00,
2013-04-13 02:45:00,40.8,38.9,29.81,NE,53,0.0,5.0,93,0.01,,,0.01,VWS V14.01,2013-04-13 06:45:00,
2013-04-13 02:51:00,41.0,39.1,29.81,NE,53,0.0,0.0,93,0.01,,,0.01,VWS V14.01,2013-04-13 06:51:00,
2013-04-13 02:56:00,41.0,39.1,29.81,NE,53,3.0,5.0,93,0.01,,,0.01,VWS V14.01,2013-04-13 06:56:00,
2013-04-13 03:00:00,40.8,38.9,29.82,NE,53,0.0,6.0,93,0.01,,,0.01,VWS V14.01,2013-04-13 07:00:00,
2013-04-13 03:01:00,40.8,38.9,29.82,NE,53,3.0,5.0,93,0.00,,,0.01,VWS V14.01,2013-04-13 07:01:00,
2013-04-13 03:06:00,40.8,38.9,29.82,NE,53,4.0,5.0,93,0.00,,,0.01,VWS V14.01,2013-04-13 07:06:00,
2013-04-13 03:11:00,40.8,38.9,29.82,NE,53,0.0,5.0,93,0.00,,,0.01,VWS V14.01,2013-04-13 07:11:00,
2013-04-13 03:15:00,40.8,38.9,29.82,NE,53,0.0,5.0,93,0.00,,,0.01,VWS V14.01,2013-04-13 07:15:00,
2013-04-13 03:16:00,40.8,38.9,29.82,NE,53,0.0,0.0,93,0.00,,,0.01,VWS V14.01,2013-04-13 07:16:00,
2013-04-13 03:21:00,40.7,38.8,29.82,NE,53,0.0,0.0,93,0.00,,,0.01,VWS V14.01,2013-04-13 07:21:00,
2013-04-13 03:26:00,40.7,38.8,29.82,NE,53,0.0,1.0,93,0.00,,,0.01,VWS V14.01,2013-04-13 07:26:00,
2013-04-13 03:30:00,40.5,38.6,29.82,NE,53,0.0,1.0,93,0.00,,,0.01,VWS V14.01,2013-04-13 07:30:00,
2013-04-13 03:31:00,40.5,38.6,29.82,NE,53,0.0,0.0,93,0.00,,,0.01,VWS V14.01,2013-04-13 07:31:00,
2013-04-13 03:37:00,40.4,38.5,29.82,NE,53,0.0,0.0,93,0.00,,,0.01,VWS V14.01,2013-04-13 07:37:00,
2013-04-13 03:42:00,40.3,38.4,29.82,NE,53,0.0,0.0,93,0.00,,,0.01,VWS V14.01,2013-04-13 07:42:00,
2013-04-13 03:45:00,40.3,38.4,29.82,NE,53,0.0,0.0,93,0.00,,,0.01,VWS V14.01,2013-04-13 07:45:00,
2013-04-13 03:47:00,40.1,38.2,29.82,NE,53,0.0,0.0,93,0.00,,,0.01,VWS V14.01,2013-04-13 07:47:00,
2013-04-13 03:52:00,40.1,38.2,29.82,NE,53,0.0,0.0,93,0.00,,,0.01,VWS V14.01,2013-04-13 07:52:00,
2013-04-13 03:57:00,40.0,38.1,29.82,NE,53,0.0,0.0,93,0.00,,,0.01,VWS V14.01,2013-04-13 07:57:00,
2013-04-13 04:00:00,39.8,37.9,29.82,NE,53,0.0,0.0,93,0.00,,,0.01,VWS V14.01,2013-04-13 08:00:00,
2013-04-13 04:02:00,39.8,38.0,29.82,NE,53,0.0,0.0,93,0.00,,,0.01,VWS V14.01,2013-04-13 08:02:00,
2013-04-13 04:07:00,39.8,38.0,29.82,NE,53,0.0,0.0,93,0.00,,,0.01,VWS V14.01,2013-04-13 08:07:00,
2013-04-13 04:12:00,39.7,37.8,29.82,NE,53,0.0,0.0,93,0.00,,,0.01,VWS V14.01,2013-04-13 08:12:00,
2013-04-13 04:15:00,39.5,37.7,29.83,NE,53,0.0,0.0,93,0.00,,,0.01,VWS V14.01,2013-04-13 08:15:00,
2013-04-13 04:17:00,39.5,37.7,29.83,NE,53,0.0,0.0,93,0.00,,,0.01,VWS V14.01,2013-04-13 08:17:00,
2013-04-13 04:22:00,39.3,37.2,29.83,NE,53,0.0,2.0,92,0.00,,,0.01,VWS V14.01,2013-04-13 08:22:00,
2013-04-13 04:27:00,39.1,37.2,29.83,NE,53,0.0,2.0,93,0.00,,,0.01,VWS V14.01,2013-04-13 08:27:00,
2013-04-13 04:30:00,39.0,37.2,29.83,NE,53,0.0,2.0,93,0.00,,,0.01,VWS V14.01,2013-04-13 08:30:00,
2013-04-13 04:32:00,39.0,37.2,29.83,NE,53,0.0,0.0,93,0.00,,,0.01,VWS V14.01,2013-04-13 08:32:00,
2013-04-13 04:38:00,38.8,37.0,29.83,NE,53,0.0,0.0,93,0.00,,,0.01,VWS V14.01,2013-04-13 08:38:00,
2013-04-13 04:43:00,38.7,36.8,29.83,NE,53,0.0,0.0,93,0.00,,,0.01,VWS V14.01,2013-04-13 08:43:00,
2013-04-13 04:45:00,38.7,36.8,29.84,NE,53,0.0,0.0,93,0.00,,,0.01,VWS V14.01,2013-04-13 08:45:00,
2013-04-13 04:48:00,38.5,36.7,29.84,NE,53,0.0,0.0,93,0.00,,,0.01,VWS V14.01,2013-04-13 08:48:00,
2013-04-13 04:53:00,38.4,36.6,29.84,NE,53,0.0,0.0,93,0.00,,,0.01,VWS V14.01,2013-04-13 08:53:00,
2013-04-13 04:58:00,38.2,36.4,29.84,NE,53,0.0,0.0,93,0.00,,,0.01,VWS V14.01,2013-04-13 08:58:00,
2013-04-13 05:00:00,38.2,36.4,29.84,NE,53,0.0,0.0,93,0.00,,,0.01,VWS V14.01,2013-04-13 09:00:00,
2013-04-13 05:03:00,38.2,36.4,29.84,NE,53,0.0,0.0,93,0.00,,,0.01,VWS V14.01,2013-04-13 09:03:00,
2013-04-13 05:08:00,38.1,36.3,29.84,NE,53,0.0,0.0,93,0.00,,,0.01,VWS V14.01,2013-04-13 09:08:00,
2013-04-13 05:13:00,38.0,36.2,29.84,NE,53,0.0,0.0,93,0.00,,,0.01,VWS V14.01,2013-04-13 09:13:00,
2013-04-13 05:15:00,38.0,36.2,29.84,NE,53,0.0,0.0,93,0.00,,,0.01,VWS V14.01,2013-04-13 09:15:00,
2013-04-13 05:18:00,38.0,36.2,29.84,NE,53,0.0,0.0,93,0.00,,,0.01,VWS V14.01,2013-04-13 09:18:00,
2013-04-13 05:23:00,38.0,36.2,29.84,NE,53,0.0,0.0,93,0.00,,,0.01,VWS V14.01,2013-04-13 09:23:00,
2013-04-13 05:28:00,38.0,36.2,29.84,NE,53,0.0,0.0,93,0.00,,,0.01,VWS V14.01,2013-04-13 09:28:00,
2013-04-13 05:30:00,38.1,36.3,29.85,NE,53,0.0,0.0,93,0.00,,,0.01,VWS V14.01,2013-04-13 09:30:00,
2013-04-13 05:33:00,38.1,36.5,29.85,NE,53,0.0,0.0,94,0.00,,,0.01,VWS V14.01,2013-04-13 09:33:00,
2013-04-13 05:38:00,38.2,36.6,29.85,NE,53,0.0,0.0,94,0.00,,,0.01,VWS V14.01,2013-04-13 09:38:00,
2013-04-13 05:43:00,38.2,36.6,29.85,NE,53,0.0,0.0,94,0.00,,,0.01,VWS V14.01,2013-04-13 09:43:00,
2013-04-13 05:45:00,38.4,36.8,29.85,NE,53,0.0,0.0,94,0.00,,,0.01,VWS V14.01,2013-04-13 09:45:00,
2013-04-13 05:48:00,38.4,36.8,29.85,NE,53,0.0,0.0,94,0.00,,,0.01,VWS V14.01,2013-04-13 09:48:00,
2013-04-13 05:53:00,38.4,36.8,29.85,NE,53,0.0,0.0,94,0.00,,,0.01,VWS V14.01,2013-04-13 09:53:00,
2013-04-13 05:58:00,38.4,36.8,29.85,NE,53,0.0,0.0,94,0.00,,,0.01,VWS V14.01,2013-04-13 09:58:00,
2013-04-13 06:00:00,38.4,36.8,29.85,NE,53,0.0,0.0,94,0.00,,,0.01,VWS V14.01,2013-04-13 10:00:00,
2013-04-13 06:03:00,38.5,36.9,29.85,NE,53,0.0,0.0,94,0.00,,,0.01,VWS V14.01,2013-04-13 10:03:00,
2013-04-13 06:08:00,38.5,36.9,29.85,NE,53,1.0,2.0,94,0.00,,,0.01,VWS V14.01,2013-04-13 10:08:00,
2013-04-13 06:13:00,38.5,36.9,29.85,NE,53,0.0,2.0,94,0.00,,,0.01,VWS V14.01,2013-04-13 10:13:00,
2013-04-13 06:15:00,38.5,36.9,29.85,NE,53,0.0,2.0,94,0.00,,,0.01,VWS V14.01,2013-04-13 10:15:00,
2013-04-13 06:19:00,38.7,37.4,29.85,NE,53,0.0,0.0,95,0.00,,,0.01,VWS V14.01,2013-04-13 10:19:00,
2013-04-13 06:23:00,38.7,37.4,29.85,NE,53,0.0,0.0,95,0.00,,,0.01,VWS V14.01,2013-04-13 10:23:00,
2013-04-13 06:29:00,38.7,37.4,29.85,NE,53,0.0,0.0,95,0.00,,,0.01,VWS V14.01,2013-04-13 10:29:00,
2013-04-13 06:30:00,38.7,37.4,29.85,NE,53,0.0,0.0,95,0.00,,,0.01,VWS V14.01,2013-04-13 10:30:00,
2013-04-13 06:34:00,38.7,37.4,29.85,NE,53,0.0,0.0,95,0.00,,,0.01,VWS V14.01,2013-04-13 10:34:00,
2013-04-13 06:39:00,38.8,37.5,29.85,NE,53,0.0,0.0,95,0.00,,,0.01,VWS V14.01,2013-04-13 10:39:00,
2013-04-13 06:44:00,38.8,37.5,29.85,NE,53,0.0,0.0,95,0.00,,,0.01,VWS V14.01,2013-04-13 10:44:00,
2013-04-13 06:45:00,38.8,37.5,29.85,NE,53,0.0,0.0,95,0.00,,,0.01,VWS V14.01,2013-04-13 10:45:00,
2013-04-13 06:48:00,38.8,37.5,29.85,NE,53,0.0,0.0,95,0.00,,,0.01,VWS V14.01,2013-04-13 10:48:00,
2013-04-13 06:54:00,38.7,37.4,29.85,ENE,57,0.0,0.0,95,0.00,,,0.01,VWS V14.01,2013-04-13 10:54:00,
2013-04-13 06:59:00,38.7,37.4,29.85,ENE,57,0.0,0.0,95,0.00,,,0.01,VWS V14.01,2013-04-13 10:59:00,
2013-04-13 07:00:00,38.7,37.4,29.85,ENE,57,0.0,0.0,95,0.00,,,0.01,VWS V14.01,2013-04-13 11:00:00,
2013-04-13 07:04:00,38.8,37.5,29.85,ENE,57,0.0,0.0,95,0.00,,,0.01,VWS V14.01,2013-04-13 11:04:00,
2013-04-13 07:09:00,39.0,37.7,29.85,ENE,57,0.0,0.0,95,0.00,,,0.01,VWS V14.01,2013-04-13 11:09:00,
2013-04-13 07:14:00,39.0,37.7,29.85,ENE,57,0.0,0.0,95,0.00,,,0.01,VWS V14.01,2013-04-13 11:14:00,
2013-04-13 07:15:00,39.0,38.0,29.85,ENE,57,0.0,0.0,96,0.00,,,0.01,VWS V14.01,2013-04-13 11:15:00,
2013-04-13 07:19:00,39.3,38.3,29.85,ENE,57,0.0,0.0,96,0.00,,,0.01,VWS V14.01,2013-04-13 11:19:00,
2013-04-13 07:24:00,39.7,38.7,29.85,ENE,57,0.0,0.0,96,0.00,,,0.01,VWS V14.01,2013-04-13 11:24:00,
2013-04-13 07:29:00,40.1,39.3,29.85,ENE,57,0.0,0.0,97,0.00,,,0.01,VWS V14.01,2013-04-13 11:29:00,
2013-04-13 07:30:00,40.0,39.2,29.86,ENE,57,0.0,0.0,97,0.00,,,0.01,VWS V14.01,2013-04-13 11:30:00,
2013-04-13 07:34:00,39.7,38.7,29.86,ENE,57,0.0,0.0,96,0.00,,,0.01,VWS V14.01,2013-04-13 11:34:00,
2013-04-13 07:39:00,40.1,39.3,29.86,ENE,57,0.0,0.0,97,0.00,,,0.01,VWS V14.01,2013-04-13 11:39:00,
2013-04-13 07:44:00,40.3,39.5,29.87,ENE,57,0.0,0.0,97,0.00,,,0.01,VWS V14.01,2013-04-13 11:44:00,
2013-04-13 07:45:00,40.3,39.5,29.87,ENE,57,0.0,0.0,97,0.00,,,0.01,VWS V14.01,2013-04-13 11:45:00,
2013-04-13 07:49:00,40.1,39.3,29.87,ENE,57,0.0,0.0,97,0.00,,,0.01,VWS V14.01,2013-04-13 11:49:00,
2013-04-13 07:54:00,40.3,39.5,29.87,ENE,57,0.0,0.0,97,0.00,,,0.01,VWS V14.01,2013-04-13 11:54:00,
2013-04-13 08:00:00,40.1,39.3,29.88,ENE,57,0.0,0.0,97,0.00,,,0.01,VWS V14.01,2013-04-13 12:00:00,
2013-04-13 08:05:00,40.3,39.5,29.88,ENE,57,0.0,1.0,97,0.00,,,0.01,VWS V14.01,2013-04-13 12:05:00,
2013-04-13 08:10:00,40.7,39.9,29.88,ENE,57,0.0,1.0,97,0.00,,,0.01,VWS V14.01,2013-04-13 12:10:00,
2013-04-13 08:15:00,41.3,40.5,29.88,ENE,57,0.0,1.0,97,0.00,,,0.01,VWS V14.01,2013-04-13 12:15:00,
2013-04-13 08:16:00,41.4,40.6,29.88,NNE,13,0.0,0.0,97,0.00,,,0.01,VWS V14.01,2013-04-13 12:16:00,
2013-04-13 08:22:00,42.0,40.9,29.88,NNE,13,0.0,0.0,96,0.00,,,0.01,VWS V14.01,2013-04-13 12:22:00,
2013-04-13 08:27:00,42.5,40.6,29.88,West,262,0.0,4.0,93,0.00,,,0.01,VWS V14.01,2013-04-13 12:27:00,
2013-04-13 08:30:00,43.0,40.3,29.89,WSW,257,4.0,7.0,90,0.00,,,0.01,VWS V14.01,2013-04-13 12:30:00,
2013-04-13 08:32:00,43.1,39.8,29.89,WSW,257,0.0,5.0,88,0.00,,,0.01,VWS V14.01,2013-04-13 12:32:00,
2013-04-13 08:37:00,43.8,39.9,29.89,NW,305,2.0,5.0,86,0.00,,,0.01,VWS V14.01,2013-04-13 12:37:00,
2013-04-13 08:42:00,44.1,39.0,29.89,West,262,5.0,8.0,82,0.00,,,0.01,VWS V14.01,2013-04-13 12:42:00,
2013-04-13 08:45:00,44.4,38.0,29.89,West,261,6.0,8.0,78,0.00,,,0.01,VWS V14.01,2013-04-13 12:45:00,
2013-04-13 08:47:00,44.5,36.4,29.89,West,267,7.0,11.0,73,0.00,,,0.01,VWS V14.01,2013-04-13 12:47:00,
2013-04-13 08:52:00,45.1,36.6,29.89,WSW,250,5.0,11.0,72,0.00,,,0.01,VWS V14.01,2013-04-13 12:52:00,
2013-04-13 08:57:00,45.4,35.5,29.89,WSW,254,7.0,15.0,68,0.00,,,0.01,VWS V14.01,2013-04-13 12:57:00,
2013-04-13 09:00:00,45.6,35.7,29.90,WSW,257,6.0,15.0,68,0.00,,,0.01,VWS V14.01,2013-04-13 13:00:00,
2013-04-13 09:02:00,45.7,35.8,29.90,WSW,245,6.0,8.0,68,0.00,,,0.01,VWS V14.01,2013-04-13 13:02:00,
2013-04-13 09:07:00,46.2,35.5,29.90,West,265,4.0,10.0,66,0.00,,,0.01,VWS V14.01,2013-04-13 13:07:00,
2013-04-13 09:13:00,46.3,34.4,29.90,West,265,5.0,15.0,63,0.00,,,0.01,VWS V14.01,2013-04-13 13:13:00,
2013-04-13 09:15:00,46.4,34.9,29.90,West,281,5.0,15.0,64,0.00,,,0.01,VWS V14.01,2013-04-13 13:15:00,
2013-04-13 09:18:00,46.4,34.9,29.90,NE,34,1.0,9.0,64,0.00,,,0.01,VWS V14.01,2013-04-13 13:18:00,
2013-04-13 09:23:00,46.6,33.9,29.90,WSW,245,6.0,11.0,61,0.00,,,0.01,VWS V14.01,2013-04-13 13:23:00,
2013-04-13 09:28:00,46.9,35.0,29.90,West,264,10.0,11.0,63,0.00,,,0.01,VWS V14.01,2013-04-13 13:28:00,
2013-04-13 09:30:00,46.7,34.0,29.90,West,271,11.0,11.0,61,0.00,,,0.01,VWS V14.01,2013-04-13 13:30:00,
2013-04-13 09:32:00,46.7,34.0,29.90,West,275,8.0,11.0,61,0.00,,,0.01,VWS V14.01,2013-04-13 13:32:00,
2013-04-13 09:38:00,47.3,35.0,29.90,WNW,285,7.0,11.0,62,0.00,,,0.01,VWS V14.01,2013-04-13 13:38:00,
2013-04-13 09:42:00,47.9,34.7,29.90,West,268,2.0,11.0,60,0.00,,,0.01,VWS V14.01,2013-04-13 13:42:00,
2013-04-13 09:45:00,47.9,35.1,29.91,West,265,2.0,11.0,61,0.00,,,0.01,VWS V14.01,2013-04-13 13:45:00,
2013-04-13 09:47:00,47.8,33.8,29.91,NW,321,0.0,9.0,58,0.00,,,0.01,VWS V14.01,2013-04-13 13:47:00,
2013-04-13 09:53:00,47.8,33.8,29.91,WSW,246,9.0,10.0,58,0.00,,,0.01,VWS V14.01,2013-04-13 13:53:00,
2013-04-13 09:58:00,47.6,31.8,29.91,WNW,286,0.0,10.0,54,0.00,,,0.01,VWS V14.01,2013-04-13 13:58:00,
2013-04-13 10:00:00,48.2,34.1,29.91,NNE,28,4.0,10.0,58,0.00,,,0.01,VWS V14.01,2013-04-13 14:00:00,
2013-04-13 10:03:00,48.2,32.3,29.91,NW,313,2.0,8.0,54,0.00,,,0.01,VWS V14.01,2013-04-13 14:03:00,
2013-04-13 10:08:00,48.5,32.2,29.91,North,355,1.0,10.0,53,0.00,,,0.01,VWS V14.01,2013-04-13 14:08:00,
2013-04-13 10:13:00,48.7,31.9,29.91,West,276,5.0,10.0,52,0.00,,,0.01,VWS V14.01,2013-04-13 14:13:00,
2013-04-13 10:15:00,48.4,31.6,29.91,West,267,8.0,10.0,52,0.00,,,0.01,VWS V14.01,2013-04-13 14:15:00,
2013-04-13 10:18:00,48.1,30.8,29.91,WSW,248,3.0,10.0,51,0.00,,,0.01,VWS V14.01,2013-04-13 14:18:00,
2013-04-13 10:23:00,47.9,31.1,29.91,NW,313,4.0,11.0,52,0.00,,,0.01,VWS V14.01,2013-04-13 14:23:00,
2013-04-13 10:28:00,47.8,32.0,29.91,SW,226,8.0,12.0,54,0.00,,,0.01,VWS V14.01,2013-04-13 14:28:00,
2013-04-13 10:30:00,47.8,32.0,29.91,West,271,7.0,12.0,54,0.00,,,0.01,VWS V14.01,2013-04-13 14:30:00,
2013-04-13 10:33:00,47.5,31.2,29.91,WSW,252,5.0,9.0,53,0.00,,,0.01,VWS V14.01,2013-04-13 14:33:00,
2013-04-13 10:39:00,47.9,32.1,29.91,West,275,0.0,0.0,54,0.00,,,0.01,VWS V14.01,2013-04-13 14:39:00,
2013-04-13 10:44:00,48.2,32.3,29.91,WSW,254,0.0,6.0,54,0.00,,,0.01,VWS V14.01,2013-04-13 14:44:00,
2013-04-13 10:45:00,48.4,32.5,29.91,West,263,6.0,6.0,54,0.00,,,0.01,VWS V14.01,2013-04-13 14:45:00,
2013-04-13 10:49:00,48.1,32.7,29.91,West,271,6.0,10.0,55,0.00,,,0.01,VWS V14.01,2013-04-13 14:49:00,
2013-04-13 10:54:00,48.1,32.3,29.91,WSW,250,0.0,10.0,54,0.00,,,0.01,VWS V14.01,2013-04-13 14:54:00,
2013-04-13 10:59:00,48.1,32.3,29.91,NE,36,1.0,10.0,54,0.00,,,0.01,VWS V14.01,2013-04-13 14:59:00,
2013-04-13 11:00:00,48.2,32.3,29.91,West,281,1.0,10.0,54,0.00,,,0.01,VWS V14.01,2013-04-13 15:00:00,
2013-04-13 11:04:00,48.1,31.3,29.91,WNW,303,0.0,7.0,52,0.00,,,0.01,VWS V14.01,2013-04-13 15:04:00,
2013-04-13 11:09:00,48.5,32.6,29.91,WNW,290,0.0,7.0,54,0.00,,,0.01,VWS V14.01,2013-04-13 15:09:00,
2013-04-13 11:14:00,48.8,32.0,29.91,NE,54,1.0,7.0,52,0.00,,,0.01,VWS V14.01,2013-04-13 15:14:00,
2013-04-13 11:15:00,49.0,32.2,29.91,NE,50,3.0,7.0,52,0.00,,,0.01,VWS V14.01,2013-04-13 15:15:00,
2013-04-13 11:19:00,48.8,31.5,29.91,NE,38,7.0,8.0,51,0.00,,,0.01,VWS V14.01,2013-04-13 15:19:00,
2013-04-13 11:24:00,48.8,32.4,29.91,East,81,0.0,8.0,53,0.00,,,0.01,VWS V14.01,2013-04-13 15:24:00,
2013-04-13 11:29:00,49.1,32.2,29.91,West,265,0.0,8.0,52,0.00,,,0.01,VWS V14.01,2013-04-13 15:29:00,
2013-04-13 11:30:00,49.4,32.5,29.91,West,265,0.0,8.0,52,0.00,,,0.01,VWS V14.01,2013-04-13 15:30:00,
2013-04-13 11:34:00,49.4,31.1,29.91,West,267,6.0,8.0,49,0.00,,,0.01,VWS V14.01,2013-04-13 15:34:00,
2013-04-13 11:39:00,50.0,32.1,29.91,West,275,0.0,8.0,50,0.00,,,0.01,VWS V14.01,2013-04-13 15:39:00,
2013-04-13 11:44:00,49.6,31.2,29.91,West,273,6.0,10.0,49,0.00,,,0.01,VWS V14.01,2013-04-13 15:44:00,
2013-04-13 11:45:00,49.6,31.7,29.91,SW,225,4.0,10.0,50,0.00,,,0.01,VWS V14.01,2013-04-13 15:45:00,
2013-04-13 11:49:00,49.4,31.1,29.91,WSW,246,0.0,6.0,49,0.00,,,0.01,VWS V14.01,2013-04-13 15:49:00,
2013-04-13 11:54:00,50.1,31.2,29.91,WSW,244,0.0,6.0,48,0.00,,,0.01,VWS V14.01,2013-04-13 15:54:00,
2013-04-13 11:59:00,50.6,32.2,29.91,NNW,330,0.0,6.0,49,0.00,,,0.01,VWS V14.01,2013-04-13 15:59:00,
2013-04-13 12:00:00,50.7,31.7,29.91,NNW,330,0.0,6.0,48,0.00,,,0.01,VWS V14.01,2013-04-13 16:00:00,
2013-04-13 12:04:00,50.4,30.4,29.91,WNW,284,0.0,5.0,46,0.00,,,0.01,VWS V14.01,2013-04-13 16:04:00,
2013-04-13 12:09:00,50.1,30.7,29.91,WNW,288,10.0,15.0,47,0.00,,,0.01,VWS V14.01,2013-04-13 16:09:00,
2013-04-13 12:14:00,50.0,30.0,29.90,West,278,5.0,15.0,46,0.00,,,0.01,VWS V14.01,2013-04-13 16:14:00,
2013-04-13 12:15:00,50.0,30.6,29.90,WSW,252,6.0,15.0,47,0.00,,,0.01,VWS V14.01,2013-04-13 16:15:00,
2013-04-13 12:19:00,50.7,30.7,29.90,WSW,254,5.0,9.0,46,0.00,,,0.01,VWS V14.01,2013-04-13 16:19:00,
2013-04-13 12:24:00,51.0,29.9,29.90,West,269,5.0,9.0,44,0.00,,,0.01,VWS V14.01,2013-04-13 16:24:00,
2013-04-13 12:29:00,51.6,30.4,29.90,WSW,256,8.0,10.0,44,0.00,,,0.01,VWS V14.01,2013-04-13 16:29:00,
2013-04-13 12:30:00,51.8,30.6,29.90,WSW,241,7.0,10.0,44,0.00,,,0.01,VWS V14.01,2013-04-13 16:30:00,
2013-04-13 12:34:00,52.4,32.8,29.90,WSW,252,4.0,9.0,47,0.00,,,0.01,VWS V14.01,2013-04-13 16:34:00,
2013-04-13 12:39:00,53.3,32.0,29.90,West,276,1.0,9.0,44,0.00,,,0.01,VWS V14.01,2013-04-13 16:39:00,
2013-04-13 12:44:00,52.5,31.8,29.90,SW,217,7.0,14.0,45,0.00,,,0.01,VWS V14.01,2013-04-13 16:44:00,
2013-04-13 12:45:00,52.5,31.8,29.90,WSW,251,6.0,14.0,45,0.00,,,0.01,VWS V14.01,2013-04-13 16:45:00,
2013-04-13 12:49:00,51.6,31.0,29.90,SW,225,10.0,10.0,45,0.00,,,0.01,VWS V14.01,2013-04-13 16:49:00,
2013-04-13 12:55:00,52.2,30.4,29.90,SW,225,0.0,10.0,43,0.00,,,0.01,VWS V14.01,2013-04-13 16:55:00,
2013-04-13 13:00:00,53.0,32.2,29.89,West,262,6.0,10.0,45,0.00,,,0.01,VWS V14.01,2013-04-13 17:00:00,
2013-04-13 13:05:00,53.5,31.6,29.89,SW,226,8.0,14.0,43,0.00,,,0.01,VWS V14.01,2013-04-13 17:05:00,
2013-04-13 13:10:00,52.5,31.2,29.89,WNW,282,5.0,18.0,44,0.00,,,0.01,VWS V14.01,2013-04-13 17:10:00,
2013-04-13 13:15:00,53.1,32.3,29.89,WSW,238,8.0,18.0,45,0.00,,,0.01,VWS V14.01,2013-04-13 17:15:00,
2013-04-13 13:20:00,52.7,30.9,29.89,West,271,5.0,10.0,43,0.00,,,0.01,VWS V14.01,2013-04-13 17:20:00,
2013-04-13 13:25:00,52.1,30.9,29.89,West,261,4.0,10.0,44,0.00,,,0.01,VWS V14.01,2013-04-13 17:25:00,
2013-04-13 13:30:00,53.0,31.1,29.88,West,261,0.0,10.0,43,0.00,,,0.01,VWS V14.01,2013-04-13 17:30:00,
2013-04-13 13:35:00,53.3,32.5,29.88,NW,320,0.0,2.0,45,0.00,,,0.01,VWS V14.01,2013-04-13 17:35:00,
2013-04-13 13:40:00,54.0,32.6,29.88,West,261,10.0,11.0,44,0.00,,,0.01,VWS V14.01,2013-04-13 17:40:00,
2013-04-13 13:45:00,54.4,32.4,29.88,West,260,6.0,11.0,43,0.00,,,0.01,VWS V14.01,2013-04-13 17:45:00,
2013-04-13 13:50:00,54.1,32.7,29.88,SW,236,6.0,13.0,44,0.00,,,0.01,VWS V14.01,2013-04-13 17:50:00,
2013-04-13 13:55:00,54.4,31.2,29.88,West,279,5.0,15.0,41,0.00,,,0.01,VWS V14.01,2013-04-13 17:55:00,
2013-04-13 14:00:00,53.8,31.9,29.87,NW,314,2.0,15.0,43,0.00,,,0.01,VWS V14.01,2013-04-13 18:00:00,
2013-04-13 14:05:00,54.0,32.0,29.87,WSW,258,9.0,9.0,43,0.00,,,0.01,VWS V14.01,2013-04-13 18:05:00,
2013-04-13 14:10:00,54.9,32.8,29.87,WSW,242,18.0,19.0,43,0.00,,,0.01,VWS V14.01,2013-04-13 18:10:00,
2013-04-13 14:15:00,55.3,32.6,29.87,West,271,6.0,9.0,42,0.00,,,0.01,VWS V14.01,2013-04-13 18:15:00,
2013-04-13 14:20:00,54.9,32.3,29.87,SW,229,5.0,15.0,42,0.00,,,0.01,VWS V14.01,2013-04-13 18:20:00,
2013-04-13 14:25:00,54.3,32.3,29.87,WSW,254,5.0,15.0,43,0.00,,,0.01,VWS V14.01,2013-04-13 18:25:00,
2013-04-13 14:27:00,54.4,32.4,29.87,WNW,284,4.0,15.0,43,0.00,,,0.01,VWS V14.01,2013-04-13 18:27:00,
2013-04-13 14:30:00,54.1,32.1,29.86,SW,236,7.0,15.0,43,0.00,,,0.01,VWS V14.01,2013-04-13 18:30:00,
2013-04-13 14:32:00,54.1,32.1,29.86,WSW,246,8.0,15.0,43,0.00,,,0.01,VWS V14.01,2013-04-13 18:32:00,
2013-04-13 14:37:00,54.1,32.1,29.86,West,271,9.0,15.0,43,0.00,,,0.01,VWS V14.01,2013-04-13 18:37:00,
2013-04-13 14:42:00,54.1,32.1,29.86,West,277,8.0,20.0,43,0.00,,,0.01,VWS V14.01,2013-04-13 18:42:00,
2013-04-13 14:45:00,55.2,33.7,29.87,WSW,253,10.0,20.0,44,0.00,,,0.01,VWS V14.01,2013-04-13 18:45:00,
2013-04-13 14:47:00,55.5,32.2,29.87,West,280,12.0,13.0,41,0.00,,,0.01,VWS V14.01,2013-04-13 18:47:00,
2013-04-13 14:52:00,55.3,32.6,29.87,SW,231,6.0,18.0,42,0.00,,,0.01,VWS V14.01,2013-04-13 18:52:00,
2013-04-13 14:57:00,55.0,32.3,29.87,WSW,243,7.0,19.0,42,0.00,,,0.01,VWS V14.01,2013-04-13 18:57:00,
2013-04-13 15:00:00,54.6,32.6,29.88,WSW,252,11.0,19.0,43,0.00,,,0.01,VWS V14.01,2013-04-13 19:00:00,
2013-04-13 15:02:00,54.6,32.6,29.88,WNW,291,8.0,13.0,43,0.00,,,0.01,VWS V14.01,2013-04-13 19:02:00,
2013-04-13 15:07:00,54.6,33.1,29.88,WSW,254,6.0,18.0,44,0.00,,,0.01,VWS V14.01,2013-04-13 19:07:00,
2013-04-13 15:12:00,55.0,32.9,29.88,NNW,327,8.0,18.0,43,0.00,,,0.01,VWS V14.01,2013-04-13 19:12:00,
2013-04-13 15:15:00,55.8,33.7,29.88,West,266,7.0,22.0,43,0.00,,,0.01,VWS V14.01,2013-04-13 19:15:00,
2013-04-13 15:17:00,55.8,32.5,29.88,WSW,240,9.0,15.0,41,0.00,,,0.01,VWS V14.01,2013-04-13 19:17:00,
2013-04-13 15:22:00,55.2,32.5,29.88,NW,311,1.0,15.0,42,0.00,,,0.01,VWS V14.01,2013-04-13 19:22:00,
2013-04-13 15:27:00,55.2,33.7,29.88,West,261,12.0,16.0,44,0.00,,,0.01,VWS V14.01,2013-04-13 19:27:00,
2013-04-13 15:30:00,54.9,32.8,29.88,SW,233,7.0,16.0,43,0.00,,,0.01,VWS V14.01,2013-04-13 19:30:00,
2013-04-13 15:32:00,54.7,32.7,29.88,West,261,11.0,12.0,43,0.00,,,0.01,VWS V14.01,2013-04-13 19:32:00,
2013-04-13 15:37:00,55.2,33.1,29.88,West,276,16.0,20.0,43,0.00,,,0.01,VWS V14.01,2013-04-13 19:37:00,
2013-04-13 15:42:00,55.2,33.1,29.88,West,271,13.0,20.0,43,0.00,,,0.01,VWS V14.01,2013-04-13 19:42:00,
2013-04-13 15:45:00,54.9,32.8,29.88,West,270,8.0,20.0,43,0.00,,,0.01,VWS V14.01,2013-04-13 19:45:00,
2013-04-13 15:47:00,54.7,32.7,29.88,West,273,7.0,10.0,43,0.00,,,0.01,VWS V14.01,2013-04-13 19:47:00,
2013-04-13 15:52:00,54.7,33.2,29.88,WSW,243,8.0,11.0,44,0.00,,,0.01,VWS V14.01,2013-04-13 19:52:00,
2013-04-13 15:57:00,54.7,33.2,29.88,West,281,12.0,16.0,44,0.00,,,0.01,VWS V14.01,2013-04-13 19:57:00,
2013-04-13 16:00:00,54.9,32.8,29.87,WNW,285,9.0,16.0,43,0.00,,,0.01,VWS V14.01,2013-04-13 20:00:00,
2013-04-13 16:02:00,55.3,33.8,29.87,NW,325,5.0,9.0,44,0.00,,,0.01,VWS V14.01,2013-04-13 20:02:00,
2013-04-13 16:07:00,55.2,32.5,29.87,WSW,252,10.0,20.0,42,0.00,,,0.01,VWS V14.01,2013-04-13 20:07:00,
2013-04-13 16:12:00,54.6,32.6,29.87,West,279,8.0,20.0,43,0.00,,,0.01,VWS V14.01,2013-04-13 20:12:00,
2013-04-13 16:15:00,54.9,32.8,29.86,West,277,7.0,20.0,43,0.00,,,0.01,VWS V14.01,2013-04-13 20:15:00,
2013-04-13 16:17:00,55.2,33.1,29.86,WSW,254,5.0,9.0,43,0.00,,,0.01,VWS V14.01,2013-04-13 20:17:00,
2013-04-13 16:22:00,55.5,32.2,29.86,WNW,297,10.0,16.0,41,0.00,,,0.01,VWS V14.01,2013-04-13 20:22:00,
2013-04-13 16:27:00,55.5,34.0,29.86,West,281,6.0,19.0,44,0.00,,,0.01,VWS V14.01,2013-04-13 20:27:00,
2013-04-13 16:30:00,55.6,32.9,29.88,WNW,291,10.0,19.0,42,0.00,,,0.01,VWS V14.01,2013-04-13 20:30:00,
2013-04-13 16:32:00,55.5,32.8,29.88,West,271,9.0,19.0,42,0.00,,,0.01,VWS V14.01,2013-04-13 20:32:00,
2013-04-13 16:37:00,54.7,32.7,29.88,WNW,296,9.0,19.0,43,0.00,,,0.01,VWS V14.01,2013-04-13 20:37:00,
2013-04-13 16:42:00,55.2,33.1,29.88,West,269,18.0,22.0,43,0.00,,,0.01,VWS V14.01,2013-04-13 20:42:00,
2013-04-13 16:45:00,55.3,32.0,29.88,WSW,240,7.0,22.0,41,0.00,,,0.01,VWS V14.01,2013-04-13 20:45:00,
2013-04-13 16:47:00,55.3,32.0,29.88,WNW,286,12.0,14.0,41,0.00,,,0.01,VWS V14.01,2013-04-13 20:47:00,
2013-04-13 16:52:00,54.9,32.8,29.88,West,259,6.0,19.0,43,0.00,,,0.01,VWS V14.01,2013-04-13 20:52:00,
2013-04-13 16:57:00,55.0,32.3,29.88,West,269,11.0,19.0,42,0.00,,,0.01,VWS V14.01,2013-04-13 20:57:00,
2013-04-13 17:00:00,54.9,32.8,29.89,West,261,8.0,19.0,43,0.00,,,0.01,VWS V14.01,2013-04-13 21:00:00,
2013-04-13 17:02:00,54.9,32.8,29.89,NW,319,4.0,9.0,43,0.00,,,0.01,VWS V14.01,2013-04-13 21:02:00,
2013-04-13 17:07:00,55.0,32.3,29.89,WSW,254,7.0,12.0,42,0.00,,,0.01,VWS V14.01,2013-04-13 21:07:00,
2013-04-13 17:12:00,55.5,32.2,29.89,West,273,7.0,14.0,41,0.00,,,0.01,VWS V14.01,2013-04-13 21:12:00,
2013-04-13 17:15:00,55.3,32.0,29.89,West,281,6.0,14.0,41,0.00,,,0.01,VWS V14.01,2013-04-13 21:15:00,
2013-04-13 17:17:00,55.3,32.6,29.89,West,272,11.0,11.0,42,0.00,,,0.01,VWS V14.01,2013-04-13 21:17:00,
2013-04-13 17:22:00,55.5,32.2,29.89,WSW,250,5.0,13.0,41,0.00,,,0.01,VWS V14.01,2013-04-13 21:22:00,
2013-04-13 17:27:00,55.6,32.3,29.89,NW,311,4.0,13.0,41,0.00,,,0.01,VWS V14.01,2013-04-13 21:27:00,
2013-04-13 17:30:00,55.9,32.0,29.87,West,273,4.0,13.0,40,0.00,,,0.01,VWS V14.01,2013-04-13 21:30:00,
2013-04-13 17:32:00,55.9,32.0,29.87,West,266,6.0,6.0,40,0.00,,,0.01,VWS V14.01,2013-04-13 21:32:00,
2013-04-13 17:37:00,55.8,31.9,29.87,SW,231,7.0,13.0,40,0.00,,,0.01,VWS V14.01,2013-04-13 21:37:00,
2013-04-13 17:42:00,55.5,32.2,29.87,West,280,5.0,13.0,41,0.00,,,0.01,VWS V14.01,2013-04-13 21:42:00,
2013-04-13 17:45:00,55.2,31.9,29.89,West,275,10.0,19.0,41,0.00,,,0.01,VWS V14.01,2013-04-13 21:45:00,
2013-04-13 17:47:00,55.0,31.1,29.89,West,280,5.0,15.0,40,0.00,,,0.01,VWS V14.01,2013-04-13 21:47:00,
2013-04-13 17:52:00,54.7,32.7,29.89,WSW,252,9.0,15.0,43,0.00,,,0.01,VWS V14.01,2013-04-13 21:52:00,
2013-04-13 17:57:00,54.9,32.3,29.89,West,269,8.0,15.0,42,0.00,,,0.01,VWS V14.01,2013-04-13 21:57:00,
2013-04-13 18:00:00,54.7,31.5,29.90,West,259,11.0,15.0,41,0.00,,,0.01,VWS V14.01,2013-04-13 22:00:00,
2013-04-13 18:02:00,54.6,32.0,29.90,WNW,298,6.0,14.0,42,0.00,,,0.01,VWS V14.01,2013-04-13 22:02:00,
2013-04-13 18:07:00,54.6,32.6,29.90,West,281,5.0,14.0,43,0.00,,,0.01,VWS V14.01,2013-04-13 22:07:00,
2013-04-13 18:12:00,54.9,32.3,29.90,West,269,6.0,14.0,42,0.00,,,0.01,VWS V14.01,2013-04-13 22:12:00,
2013-04-13 18:15:00,54.9,31.7,29.91,NW,306,10.0,14.0,41,0.00,,,0.01,VWS V14.01,2013-04-13 22:15:00,
2013-04-13 18:17:00,54.9,31.0,29.91,WSW,237,7.0,12.0,40,0.00,,,0.01,VWS V14.01,2013-04-13 22:17:00,
2013-04-13 18:22:00,54.9,31.7,29.91,WNW,284,0.0,12.0,41,0.00,,,0.01,VWS V14.01,2013-04-13 22:22:00,
2013-04-13 18:27:00,54.9,31.7,29.91,West,279,2.0,12.0,41,0.00,,,0.01,VWS V14.01,2013-04-13 22:27:00,
2013-04-13 18:30:00,54.9,31.0,29.91,WNW,298,6.0,12.0,40,0.00,,,0.01,VWS V14.01,2013-04-13 22:30:00,
2013-04-13 18:32:00,54.9,31.7,29.91,WNW,289,0.0,6.0,41,0.00,,,0.01,VWS V14.01,2013-04-13 22:32:00,
2013-04-13 18:37:00,54.9,31.7,29.91,WNW,292,7.0,7.0,41,0.00,,,0.01,VWS V14.01,2013-04-13 22:37:00,
2013-04-13 18:42:00,54.7,32.1,29.91,West,279,3.0,9.0,42,0.00,,,0.01,VWS V14.01,2013-04-13 22:42:00,
2013-04-13 18:45:00,54.4,32.4,29.91,NW,313,3.0,9.0,43,0.00,,,0.01,VWS V14.01,2013-04-13 22:45:00,
2013-04-13 18:47:00,54.4,32.4,29.91,West,280,6.0,8.0,43,0.00,,,0.01,VWS V14.01,2013-04-13 22:47:00,
2013-04-13 18:52:00,54.1,32.1,29.91,WNW,283,2.0,8.0,43,0.00,,,0.01,VWS V14.01,2013-04-13 22:52:00,
2013-04-13 18:57:00,53.8,32.4,29.91,West,281,0.0,9.0,44,0.00,,,0.01,VWS V14.01,2013-04-13 22:57:00,
2013-04-13 19:00:00,53.7,32.3,29.91,West,281,0.0,9.0,44,0.00,,,0.01,VWS V14.01,2013-04-13 23:00:00,
2013-04-13 19:02:00,53.7,32.3,29.91,West,281,0.0,3.0,44,0.00,,,0.01,VWS V14.01,2013-04-13 23:02:00,
2013-04-13 19:09:00,53.5,32.7,29.91,West,281,0.0,3.0,45,0.00,,,0.01,VWS V14.01,2013-04-13 23:09:00,
2013-04-13 19:14:00,53.4,32.6,29.91,West,276,0.0,4.0,45,0.00,,,0.01,VWS V14.01,2013-04-13 23:14:00,
2013-04-13 19:15:00,53.4,32.6,29.91,WNW,294,0.0,4.0,45,0.00,,,0.01,VWS V14.01,2013-04-13 23:15:00,
2013-04-13 19:19:00,53.4,32.6,29.91,WNW,293,0.0,1.0,45,0.00,,,0.01,VWS V14.01,2013-04-13 23:19:00,
2013-04-13 19:24:00,53.1,32.3,29.91,West,277,0.0,5.0,45,0.00,,,0.01,VWS V14.01,2013-04-13 23:24:00,
2013-04-13 19:29:00,53.0,32.2,29.92,WNW,292,4.0,6.0,45,0.00,,,0.01,VWS V14.01,2013-04-13 23:29:00,
2013-04-13 19:30:00,53.0,32.2,29.92,WNW,292,0.0,6.0,45,0.00,,,0.01,VWS V14.01,2013-04-13 23:30:00,
2013-04-13 19:34:00,52.8,32.6,29.92,WNW,292,0.0,0.0,46,0.00,,,0.01,VWS V14.01,2013-04-13 23:34:00,
2013-04-13 19:39:00,52.7,32.5,29.92,WNW,292,0.0,1.0,46,0.00,,,0.01,VWS V14.01,2013-04-13 23:39:00,
2013-04-13 19:44:00,52.5,32.9,29.91,WNW,292,0.0,1.0,47,0.00,,,0.01,VWS V14.01,2013-04-13 23:44:00,
2013-04-13 19:45:00,52.5,32.9,29.91,WNW,292,0.0,1.0,47,0.00,,,0.01,VWS V14.01,2013-04-13 23:45:00,
2013-04-13 19:49:00,52.4,33.3,29.91,WNW,292,0.0,0.0,48,0.00,,,0.01,VWS V14.01,2013-04-13 23:49:00,
2013-04-13 19:54:00,52.1,33.5,29.91,WNW,292,0.0,0.0,49,0.00,,,0.01,VWS V14.01,2013-04-13 23:54:00,
2013-04-13 19:59:00,51.8,33.8,29.92,WNW,292,0.0,0.0,50,0.00,,,0.01,VWS V14.01,2013-04-13 23:59:00,
2013-04-13 20:00:00,51.8,34.3,29.92,WNW,292,0.0,0.0,51,0.00,,,0.01,VWS V14.01,2013-04-14 00:00:00,
2013-04-13 20:04:00,51.6,34.1,29.92,WNW,292,0.0,0.0,51,0.00,,,0.01,VWS V14.01,2013-04-14 00:04:00,
2013-04-13 20:09:00,51.3,36.2,29.92,WNW,292,0.0,0.0,56,0.00,,,0.01,VWS V14.01,2013-04-14 00:09:00,
2013-04-13 20:14:00,51.0,34.0,29.92,WNW,292,0.0,1.0,52,0.00,,,0.01,VWS V14.01,2013-04-14 00:14:00,
2013-04-13 20:15:00,51.0,33.5,29.92,WNW,292,0.0,1.0,51,0.00,,,0.01,VWS V14.01,2013-04-14 00:15:00,
2013-04-13 20:19:00,50.7,35.6,29.92,WNW,292,0.0,0.0,56,0.00,,,0.01,VWS V14.01,2013-04-14 00:19:00,
2013-04-13 20:24:00,50.6,34.6,29.92,WNW,292,0.0,0.0,54,0.00,,,0.01,VWS V14.01,2013-04-14 00:24:00,
2013-04-13 20:29:00,50.1,35.5,29.92,WNW,292,0.0,0.0,57,0.00,,,0.01,VWS V14.01,2013-04-14 00:29:00,
2013-04-13 20:30:00,50.0,35.4,29.93,WNW,292,0.0,0.0,57,0.00,,,0.01,VWS V14.01,2013-04-14 00:30:00,
2013-04-13 20:34:00,49.6,35.0,29.93,WNW,292,0.0,1.0,57,0.00,,,0.01,VWS V14.01,2013-04-14 00:34:00,
2013-04-13 20:39:00,49.3,34.7,29.93,WNW,292,0.0,1.0,57,0.00,,,0.01,VWS V14.01,2013-04-14 00:39:00,
2013-04-13 20:44:00,48.8,35.1,29.93,WNW,292,0.0,1.0,59,0.00,,,0.01,VWS V14.01,2013-04-14 00:44:00,
2013-04-13 20:45:00,48.7,35.0,29.94,WNW,292,0.0,1.0,59,0.00,,,0.01,VWS V14.01,2013-04-14 00:45:00,
2013-04-13 20:49:00,48.4,35.2,29.94,WNW,292,0.0,0.0,60,0.00,,,0.01,VWS V14.01,2013-04-14 00:49:00,
2013-04-13 20:54:00,48.1,36.1,29.94,WNW,292,0.0,0.0,63,0.00,,,0.01,VWS V14.01,2013-04-14 00:54:00,
2013-04-13 20:59:00,47.5,35.5,29.94,WNW,292,0.0,0.0,63,0.00,,,0.01,VWS V14.01,2013-04-14 00:59:00,
2013-04-13 21:00:00,47.5,35.2,29.95,WNW,292,0.0,0.0,62,0.00,,,0.01,VWS V14.01,2013-04-14 01:00:00,
2013-04-13 21:04:00,47.2,34.9,29.95,WNW,292,0.0,0.0,62,0.00,,,0.01,VWS V14.01,2013-04-14 01:04:00,
2013-04-13 21:09:00,47.0,37.0,29.95,WNW,292,0.0,3.0,68,0.00,,,0.01,VWS V14.01,2013-04-14 01:09:00,
2013-04-13 21:14:00,46.6,36.6,29.95,North,5,0.0,3.0,68,0.00,,,0.01,VWS V14.01,2013-04-14 01:14:00,
2013-04-13 21:15:00,46.6,36.6,29.95,North,5,0.0,3.0,68,0.00,,,0.01,VWS V14.01,2013-04-14 01:15:00,
2013-04-13 21:19:00,46.3,36.3,29.95,North,5,0.0,0.0,68,0.00,,,0.01,VWS V14.01,2013-04-14 01:19:00,
2013-04-13 21:24:00,46.2,36.6,29.95,North,5,0.0,0.0,69,0.00,,,0.01,VWS V14.01,2013-04-14 01:24:00,
2013-04-13 21:29:00,46.0,36.0,29.95,North,5,0.0,0.0,68,0.00,,,0.01,VWS V14.01,2013-04-14 01:29:00,
2013-04-13 21:30:00,46.0,36.0,29.96,North,5,0.0,0.0,68,0.00,,,0.01,VWS V14.01,2013-04-14 01:30:00,
2013-04-13 21:34:00,46.0,36.0,29.96,North,5,0.0,0.0,68,0.00,,,0.01,VWS V14.01,2013-04-14 01:34:00,
2013-04-13 21:39:00,45.9,36.0,29.96,North,5,0.0,0.0,68,0.00,,,0.01,VWS V14.01,2013-04-14 01:39:00,
2013-04-13 21:44:00,45.9,36.0,29.96,North,5,0.0,0.0,68,0.00,,,0.01,VWS V14.01,2013-04-14 01:44:00,
2013-04-13 21:45:00,45.9,35.6,29.96,North,5,0.0,0.0,67,0.00,,,0.01,VWS V14.01,2013-04-14 01:45:00,
2013-04-13 21:49:00,46.0,36.0,29.96,North,5,0.0,0.0,68,0.00,,,0.01,VWS V14.01,2013-04-14 01:49:00,
2013-04-13 21:54:00,46.0,36.0,29.96,North,5,0.0,0.0,68,0.00,,,0.01,VWS V14.01,2013-04-14 01:54:00,
2013-04-13 21:59:00,46.2,35.5,29.96,North,5,0.0,0.0,66,0.00,,,0.01,VWS V14.01,2013-04-14 01:59:00,
2013-04-13 22:00:00,46.2,35.1,29.96,North,5,0.0,0.0,65,0.00,,,0.01,VWS V14.01,2013-04-14 02:00:00,
2013-04-13 22:04:00,46.3,35.6,29.96,North,5,0.0,0.0,66,0.00,,,0.01,VWS V14.01,2013-04-14 02:04:00,
2013-04-13 22:09:00,46.4,35.7,29.96,North,5,0.0,0.0,66,0.00,,,0.01,VWS V14.01,2013-04-14 02:09:00,
2013-04-13 22:14:00,46.6,35.9,29.96,North,5,0.0,0.0,66,0.00,,,0.01,VWS V14.01,2013-04-14 02:14:00,
2013-04-13 22:15:00,46.6,35.9,29.97,North,5,0.0,0.0,66,0.00,,,0.01,VWS V14.01,2013-04-14 02:15:00,
2013-04-13 22:19:00,46.7,36.3,29.97,North,5,0.0,0.0,67,0.00,,,0.01,VWS V14.01,2013-04-14 02:19:00,
2013-04-13 22:24:00,46.9,36.9,29.97,North,5,0.0,0.0,68,0.00,,,0.01,VWS V14.01,2013-04-14 02:24:00,
2013-04-13 22:29:00,47.0,37.7,29.97,North,5,0.0,0.0,70,0.00,,,0.01,VWS V14.01,2013-04-14 02:29:00,
2013-04-13 22:30:00,47.0,37.7,29.97,North,5,0.0,0.0,70,0.00,,,0.01,VWS V14.01,2013-04-14 02:30:00,
2013-04-13 22:34:00,47.0,37.7,29.97,North,5,0.0,0.0,70,0.00,,,0.01,VWS V14.01,2013-04-14 02:34:00,
2013-04-13 22:39:00,47.0,37.7,29.97,North,5,0.0,0.0,70,0.00,,,0.01,VWS V14.01,2013-04-14 02:39:00,
2013-04-13 22:44:00,47.0,37.0,29.97,North,5,0.0,0.0,68,0.00,,,0.01,VWS V14.01,2013-04-14 02:44:00,
2013-04-13 22:45:00,47.0,37.0,29.97,North,5,0.0,0.0,68,0.00,,,0.01,VWS V14.01,2013-04-14 02:45:00,
2013-04-13 22:49:00,47.0,37.4,29.97,North,5,0.0,0.0,69,0.00,,,0.01,VWS V14.01,2013-04-14 02:49:00,
2013-04-13 22:54:00,47.0,37.4,29.97,North,5,0.0,0.0,69,0.00,,,0.01,VWS V14.01,2013-04-14 02:54:00,
2013-04-13 22:59:00,47.0,37.0,29.97,North,5,0.0,0.0,68,0.00,,,0.01,VWS V14.01,2013-04-14 02:59:00,
2013-04-13 23:00:00,47.0,37.0,29.97,North,5,0.0,0.0,68,0.00,,,0.01,VWS V14.01,2013-04-14 03:00:00,
2013-04-13 23:04:00,47.0,37.0,29.97,North,5,0.0,0.0,68,0.00,,,0.01,VWS V14.01,2013-04-14 03:04:00,
2013-04-13 23:09:00,47.0,37.0,29.97,North,5,0.0,0.0,68,0.00,,,0.01,VWS V14.01,2013-04-14 03:09:00,
2013-04-13 23:14:00,47.0,36.6,29.97,North,5,0.0,0.0,67,0.00,,,0.01,VWS V14.01,2013-04-14 03:14:00,
2013-04-13 23:15:00,47.0,37.0,29.97,North,5,0.0,0.0,68,0.00,,,0.01,VWS V14.01,2013-04-14 03:15:00,
2013-04-13 23:19:00,47.0,36.6,29.97,North,5,0.0,0.0,67,0.00,,,0.01,VWS V14.01,2013-04-14 03:19:00,
2013-04-13 23:24:00,47.0,36.2,29.97,North,5,0.0,0.0,66,0.00,,,0.01,VWS V14.01,2013-04-14 03:24:00,
2013-04-13 23:29:00,47.0,37.0,29.97,North,5,0.0,0.0,68,0.00,,,0.01,VWS V14.01,2013-04-14 03:29:00,
2013-04-13 23:30:00,47.0,37.0,29.97,North,5,0.0,0.0,68,0.00,,,0.01,VWS V14.01,2013-04-14 03:30:00,
2013-04-13 23:34:00,47.0,37.7,29.97,North,5,0.0,0.0,70,0.00,,,0.01,VWS V14.01,2013-04-14 03:34:00,
2013-04-13 23:39:00,46.9,37.3,29.97,North,5,0.0,0.0,69,0.00,,,0.01,VWS V14.01,2013-04-14 03:39:00,
2013-04-13 23:44:00,46.7,37.1,29.97,North,5,0.0,0.0,69,0.00,,,0.01,VWS V14.01,2013-04-14 03:44:00,
2013-04-13 23:45:00,46.7,37.1,29.97,North,5,0.0,0.0,69,0.00,,,0.01,VWS V14.01,2013-04-14 03:45:00,
2013-04-13 23:49:00,46.6,37.0,29.97,North,5,0.0,0.0,69,0.00,,,0.01,VWS V14.01,2013-04-14 03:49:00,
2013-04-13 23:54:00,46.6,37.3,29.97,North,5,0.0,0.0,70,0.00,,,0.01,VWS V14.01,2013-04-14 03:54:00,
2013-04-13 23:59:00,46.4,37.9,29.97,North,5,0.0,0.0,72,0.00,,,0.01,VWS V14.01,2013-04-14 03:59:00,